Temperature
7 7 7 7 8 8 8 9 9 9 9 10 10 10 10 11 11 11 12 12 12 12 12 12 12 12 13 13 13 13 12 12 12 12 12 12 12 12 12 12 12 12 13
6 6 7 7 7 7 8 8 8 9 9 9 9 10 10 10 11 11 11 11 11 12 12 12 12 12 12 12 12 12 12 12 12 11 11 11 11 12 12 12 12 12 12
6 6 6 6 6 7 7 7 8 8 8 9 9 9 9 10 10 10 11 11 11 11 11 11 11 12 12 12 12 12 12 12 11 11 11 11 12 11 11 11 11 11 11
5 5 5 5 6 6 6 7 7 7 8 8 9 9 9 9 9 10 10 10 10 10 11 11 11 11 11 11 11 11 11 11 11 11 11 11 11 11 11 11 11 11 11
5 5 5 5 5 6 6 7 7 7 7 8 8 8 8 8 9 9 9 10 10 10 10 10 11 11 11 11 11 11 11 11 11 10 10 10 10 10 10 10 10 10 10
4 4 4 5 5 5 6 6 6 7 7 7 7 8 8 8 8 9 9 9 9 10 10 10 10 10 10 10 10 10 10 10 10 10 10 10 10 10 10 10 10 10 10
4 4 4 4 4 5 5 5 6 6 6 7 7 7 7 7 8 8 9 9 9 9 9 9 10 10 10 10 10 10 10 10 10 10 10 9 9 9 10 9 9 9 9
4 4 4 4 4 4 4 5 5 6 6 6 6 7 7 7 7 8 8 8 8 9 9 9 9 9 9 9 9 9 9 9 9 9 9 9 9 9 9 9 9 8 8
3 3 3 3 3 4 4 4 5 5 5 6 6 6 6 6 7 7 8 8 8 8 8 8 8 8 8 8 9 9 9 9 9 9 9 9 9 9 9 9 9 8 8
3 3 3 3 3 3 4 4 4 5 5 5 5 5 6 6 7 7 7 7 7 7 7 8 8 8 8 8 8 8 8 8 8 8 8 8 8 8 8 8 8 8 8
3 3 3 3 3 3 3 4 4 5 5 5 5 5 6 6 6 6 6 6 7 7 7 7 7 7 7 7 7 8 8 8 8 8 8 7 7 7 7 7 7 7 7
2 3 3 3 3 3 3 3 3 4 4 4 4 5 5 5 5 6 6 6 6 6 6 6 6 7 7 7 7 7 7 7 7 7 7 7 7 6 6 6 6 6 6
2 3 3 3 3 3 3 3 3 3 4 4 4 4 4 5 5 5 5 5 5 5 6 6 6 6 6 6 6 6 6 6 6 7 6 6 6 6 6 6 6 6 6
2 2 2 2 2 3 3 3 3 3 3 3 3 3 4 4 4 4 4 5 5 5 5 5 5 5 6 6 6 6 6 6 6 6 6 6 6 5 5 5 5 5 5
2 2 2 2 2 2 2 2 3 3 3 3 3 3 3 3 4 4 4 4 5 5 5 5 5 5 5 5 5 5 5 5 5 5 5 5 5 5 5 4 4 4 4
2 2 2 2 2 2 2 2 2 3 3 3 3 3 3 3 3 3 4 4 4 4 4 4 4 4 4 4 4 4 4 4 4 4 4 4 4 4 4 4 4 4 4
2 2 2 2 2 2 2 2 2 2 2 2 2 3 3 3 3 3 3 3 3 3 3 3 3 3 3 3 3 4 3 3 3 3 3 3 3 3 3 3 4 4 3
2 2 2 2 2 2 2 2 2 2 2 2 2 2 2 2 2 2 3 3 3 3 3 3 3 3 3 3 3 3 3 3 3 3 3 3 3 3 3 3 3 3 3
3 2 2 2 2 2 2 2 2 2 2 2 2 2 2 2 2 2 2 2 2 2 2 2 2 2 2 2 2 2 2 2 2 2 2 2 2 2 2 2 2 2 2
3 2 2 2 2 2 2 1 2 1 1 1 1 1 1 1 1 1 1 1 1 1 1 1 1 1 1 1 2 1 1 1 1 1 2 2 1 1 1 1 1 1 1
2 2 2 2 2 1 1 1 1 1 1 1 1 1 1 1 1 1 1 1 1 1 1 1 1 1 1 1 1 1 0 0 0 0 1 1 1 1 1 1 1 1 1
2 2 2 1 1 1 1 1 1 1 1 1 1 1 1 1 0 0 0 0 0 0 0 0 0 0 0 0 0 0 -0 -0 -0 -0 -0 -0 0 0 0 0 0 0 0
2 2 1 1 1 1 1 1 1 0 0 0 0 0 0 0 -0 -0 -0 -0 -1 -1 -1 -1 -1 -1 -0 -0 -0 -0 -0 -0 -0 -0 -1 -1 -0 -0 -0 -0 -0 -0 -0
2 2 1 1 1 1 1 0 0 0 -0 -0 -0 -0 -0 -0 -0 -1 -1 -1 -1 -1 -2 -2 -2 -1 -1 -1 -1 -1 -1 -1 -1 -1 -1 -1 -1 -1 -1 -1 -1 -1 -1
2 2 1 1 1 1 0 0 -0 -0 -0 -0 -1 -1 -1 -1 -1 -1 -1 -1 -2 -2 -2 -2 -2 -2 -2 -1 -1 -2 -1 -1 -1 -1 -1 -1 -1 -1 -1 -1 -1 -1 -1
2 2 1 1 1 0 0 -0 -0 -0 -1 -1 -1 -1 -1 -1 -1 -1 -1 -1 -2 -2 -2 -2 -2 -2 -2 -2 -1 -1 -2 -2 -2 -2 -2 -2 -2 -2 -2 -2 -2 -2 -2
Wind_Speed
11 10 10 9 8 7 6 6 6 7 5 6 6 6 7 7 7 7 8 9 9 11 10 9 9 9 9 10 11 9 10 9 7 7 6 7 9 9 8 8 8 9 10
11 11 11 9 8 7 5 5 6 6 6 6 6 6 6 6 7 6 7 8 9 10 9 10 9 10 9 10 10 10 8 7 7 6 5 5 7 8 9 8 8 9 8
12 12 11 10 9 7 5 4 5 6 6 6 6 5 5 6 6 7 6 8 9 10 10 10 9 9 10 10 11 11 11 9 9 8 6 5 6 4 7 9 9 9 8
11 11 11 11 9 7 6 5 5 5 5 5 6 8 7 8 8 6 6 7 8 9 9 9 9 9 9 9 10 11 10 10 9 8 8 7 4 5 4 7 9 10 10
12 11 11 10 8 7 6 4 4 4 4 4 5 7 8 7 6 6 7 6 6 7 8 9 8 9 9 9 10 10 10 9 10 8 8 8 7 8 6 8 8 8 9
12 11 10 9 8 7 5 4 3 3 3 3 4 5 7 7 7 7 6 5 5 6 7 7 8 8 8 9 9 9 10 10 10 10 9 8 8 8 8 9 9 9 8
12 11 10 9 8 7 6 4 2 1 1 2 2 2 4 6 6 6 6 5 4 4 5 6 6 7 7 8 8 8 9 10 10 11 10 9 9 8 8 8 8 8 6
11 11 9 8 8 8 7 5 3 2 2 1 1 1 2 3 3 4 3 3 3 4 5 5 5 6 7 8 7 7 7 7 9 10 10 8 9 8 8 8 7 7 7
11 11 10 9 8 7 7 5 4 3 3 2 2 1 1 2 2 2 2 3 3 3 5 5 5 6 6 7 7 6 7 7 8 8 8 8 7 7 7 7 7 8 9
10 11 10 9 9 8 7 7 6 4 4 4 3 2 3 2 0 1 1 2 3 3 4 4 4 5 6 6 6 6 6 6 6 6 8 8 7 7 6 6 7 8 9
9 9 9 9 9 9 9 8 7 7 6 5 5 5 4 3 2 1 0 1 1 2 3 3 4 5 4 5 6 7 7 7 7 7 8 9 8 7 7 6 6 7 7
8 8 8 9 9 9 9 8 7 7 7 6 6 6 5 4 4 3 2 1 1 1 1 2 3 3 4 4 4 6 6 7 8 8 8 9 7 8 7 7 7 7 7
7 8 8 9 9 9 9 9 9 8 8 7 7 7 6 7 6 5 4 2 1 1 1 0 1 2 2 3 3 4 4 5 6 7 8 8 8 8 7 8 8 7 6
6 7 7 8 8 8 9 8 8 8 8 8 7 7 7 7 6 5 5 4 3 2 1 1 1 1 1 2 3 4 4 5 5 6 6 7 7 8 8 8 8 7 7
5 6 7 7 7 8 8 8 8 8 8 8 8 8 7 7 6 6 6 5 5 4 3 2 2 1 1 1 2 3 4 5 7 7 7 7 7 8 7 7 7 7 7
5 5 6 6 7 7 7 7 7 7 7 7 7 7 7 7 7 7 7 6 6 6 5 4 2 2 1 3 4 4 4 5 6 7 7 7 8 7 8 8 8 8 8
4 5 5 5 6 6 6 6 6 6 6 6 7 7 7 7 7 7 7 7 7 6 5 4 3 2 3 4 4 5 5 5 6 6 6 5 6 7 8 8 8 9 9
3 4 4 5 5 5 5 5 5 5 6 6 7 7 7 7 7 7 7 7 6 5 4 4 4 3 3 4 4 5 4 4 4 5 5 6 6 6 7 8 8 8 8
4 3 4 4 4 4 4 4 4 4 5 6 6 7 7 7 7 7 7 7 6 5 4 4 5 4 3 4 5 5 4 4 5 5 5 6 6 7 8 7 8 8 7
3 3 3 3 3 4 4 3 3 4 5 5 6 6 6 6 6 6 6 6 5 5 4 4 4 4 4 5 5 5 3 4 5 5 5 5 6 8 8 7 7 7 7
3 2 2 2 3 3 3 3 3 4 5 5 5 5 6 6 5 5 5 5 5 5 4 4 5 5 5 5 5 5 4 4 5 5 5 5 7 8 8 7 6 7 6
3 3 3 3 3 3 3 3 3 4 4 5 5 5 5 5 5 5 5 6 5 5 5 5 5 5 5 5 5 6 6 6 5 5 5 6 7 8 7 6 6 6 4
4 3 3 3 3 3 3 4 4 4 4 4 5 5 5 5 5 5 5 5 5 4 5 5 5 5 5 5 6 7 7 7 5 5 7 8 7 7 5 5 6 4 2
4 3 3 4 4 4 4 4 4 4 4 4 4 4 4 5 5 4 4 4 4 4 5 5 6 6 6 5 5 5 5 5 5 5 6 5 4 4 4 4 3 2 2
4 4 4 5 5 4 4 4 4 3 4 4 4 4 4 4 4 4 4 5 4 5 6 5 5 6 6 7 9 7 5 5 5 5 3 3 2 2 3 3 3 2 2
5 5 5 5 5 4 5 4 4 4 4 4 4 4 4 4 4 4 5 5 6 7 7 7 6 6 8 10 9 9 8 7 6 3 2 2 2 2 2 2 3 3 2
Wind_Direction
325 326 320 314 304 293 267 251 247 242 234 224 215 214 216 215 217 214 210 206 206 204 205 207 205 205 205 206 206 205 204 207 204 208 219 229 229 230 228 229 231 228 227
331 330 326 324 316 303 285 266 253 247 238 226 215 215 217 217 218 213 213 210 211 209 207 208 207 209 209 208 208 204 203 202 197 201 202 221 226 225 228 227 229 232 228
333 330 330 330 324 316 304 284 269 253 244 229 213 210 215 217 219 212 215 213 214 212 210 210 209 211 212 211 208 208 207 203 199 202 204 210 224 228 223 225 228 230 231
338 334 333 329 325 320 314 300 277 261 247 233 217 209 215 220 222 217 217 214 216 215 212 213 213 215 214 214 213 212 213 208 203 204 216 226 219 216 226 223 227 232 236
342 338 335 332 328 325 319 309 287 267 254 242 229 213 218 224 222 214 215 218 218 219 215 213 214 218 220 218 216 213 213 215 214 208 209 219 223 222 225 239 238 240 238
346 345 343 344 343 340 331 316 283 267 255 244 239 217 217 221 217 213 212 219 221 219 218 216 216 221 225 222 219 217 215 217 219 215 213 215 215 216 223 235 240 246 247
351 353 353 353 352 350 346 338 333 314 282 255 244 220 227 228 220 217 215 219 222 223 219 218 217 219 226 224 221 222 223 221 219 219 220 222 226 226 227 235 241 251 263
358 0 359 358 358 357 355 3 17 27 24 6 323 268 258 238 221 214 211 220 224 226 222 218 219 220 224 223 218 220 224 224 222 222 222 226 229 228 228 231 234 245 256
358 1 2 4 1 358 358 7 26 31 24 20 6 342 318 277 229 219 216 229 234 228 226 220 219 223 228 227 220 221 224 226 225 227 226 230 233 234 235 236 231 232 248
357 359 2 6 9 9 10 19 29 37 28 21 16 15 5 333 224 191 227 244 243 230 228 228 223 226 231 227 223 223 225 228 230 232 233 234 237 239 241 241 240 238 243
353 359 4 7 11 15 16 20 26 26 21 24 24 25 15 6 45 53 9 288 276 234 224 230 231 227 233 232 224 224 222 228 231 233 235 235 238 239 239 244 247 247 248
353 2 8 10 11 14 14 15 20 27 25 28 30 24 17 27 45 47 26 344 312 269 234 229 240 237 237 236 233 233 231 231 235 237 238 240 240 244 244 242 247 251 255
358 2 6 8 9 10 10 13 20 24 24 29 33 29 27 31 33 30 24 26 15 360 4 238 256 247 236 233 238 241 244 245 246 246 242 242 239 243 248 250 249 251 257
358 2 2 3 6 7 8 13 15 17 21 25 28 26 24 26 26 24 22 21 17 12 6 359 269 278 260 256 256 251 250 253 255 254 253 251 246 246 248 249 252 256 258
350 354 354 353 357 3 5 9 11 13 17 21 22 20 16 16 19 20 18 16 18 16 26 26 17 0 356 335 308 277 264 259 257 255 255 254 252 254 254 255 255 258 257
329 340 344 346 349 354 356 2 5 6 14 20 17 15 16 17 16 14 14 15 14 16 22 19 6 355 341 347 336 309 272 263 260 259 258 255 247 251 257 260 261 258 256
304 319 331 337 340 344 348 352 353 359 12 15 11 12 13 15 12 10 12 11 8 12 16 6 355 339 342 348 337 325 285 270 265 264 266 267 263 262 259 262 262 258 258
285 303 315 325 331 336 340 342 348 358 6 9 8 7 8 9 8 9 9 5 2 2 3 357 345 336 336 343 331 320 286 284 288 287 286 282 274 270 273 269 265 264 262
261 281 299 310 318 328 333 336 347 356 3 2 359 358 359 1 2 3 359 355 353 352 349 343 340 330 325 341 331 321 293 295 296 294 292 289 290 292 293 274 268 271 276
247 265 291 307 314 324 327 331 340 349 351 346 345 348 351 353 355 351 346 344 343 341 337 334 330 323 318 331 332 324 295 295 295 293 289 289 297 304 298 279 272 270 280
237 248 270 284 299 311 310 312 323 332 332 332 335 342 345 346 345 343 340 340 341 342 339 330 329 327 321 322 327 326 306 295 293 292 291 291 304 304 301 293 277 281 291
225 237 250 268 284 289 289 292 304 318 323 326 332 338 339 341 338 339 340 341 343 344 344 339 336 334 324 317 317 318 313 308 290 287 290 295 304 305 301 297 301 300 297
223 234 246 260 273 276 278 281 300 314 316 322 327 330 333 337 337 335 336 337 339 339 336 335 332 331 330 324 322 315 313 311 296 288 291 296 299 299 294 307 312 298 284
227 232 242 251 261 265 270 280 293 299 300 309 315 319 323 329 333 331 328 330 331 331 330 330 327 327 327 330 331 321 311 307 303 298 295 296 299 301 311 315 311 300 282
229 230 237 248 258 264 269 280 286 287 291 298 306 312 317 320 323 323 321 319 319 322 321 320 322 323 323 327 330 325 316 315 314 312 300 302 307 316 327 325 324 325 325
227 233 244 253 260 263 266 273 282 280 285 294 303 307 310 313 316 320 322 321 320 329 334 336 334 324 324 328 328 327 328 327 328 322 312 314 316 318 324 326 329 331 334
Height
1464 1461 1458 1455 1453 1451 1450 1451 1452 1453 1456 1458 1459 1462 1464 1466 1469 1472 1475 1477 1480 1484 1487 1490 1492 1495 1498 1500 1503 1505 1508 1510 1513 1515 1516 1517 1518 1520 1521 1522 1523 1523 1523
1461 1457 1454 1451 1449 1447 1446 1446 1447 1448 1450 1452 1454 1457 1459 1461 1464 1466 1469 1472 1475 1478 1481 1484 1487 1490 1492 1495 1497 1500 1502 1504 1507 1509 1511 1512 1514 1513 1515 1516 1517 1518 1518
1459 1455 1451 1448 1446 1444 1443 1442 1443 1444 1445 1448 1450 1452 1454 1457 1459 1461 1464 1467 1470 1473 1476 1479 1482 1484 1487 1489 1491 1494 1496 1498 1501 1503 1505 1507 1506 1508 1509 1510 1511 1512 1513
1458 1453 1449 1446 1443 1441 1440 1439 1440 1440 1441 1443 1445 1447 1450 1452 1454 1456 1459 1462 1465 1467 1471 1473 1476 1479 1481 1484 1486 1489 1491 1493 1494 1497 1499 1501 1501 1503 1503 1504 1505 1506 1506
1456 1451 1447 1443 1441 1438 1437 1436 1436 1437 1437 1439 1441 1443 1446 1449 1450 1453 1455 1457 1460 1462 1465 1467 1470 1473 1476 1478 1481 1483 1485 1487 1489 1490 1492 1494 1495 1497 1498 1497 1498 1499 1499
1455 1450 1445 1442 1439 1437 1435 1434 1434 1434 1435 1437 1438 1440 1442 1444 1446 1447 1449 1452 1455 1457 1459 1462 1465 1468 1470 1472 1475 1477 1479 1481 1483 1485 1486 1487 1488 1490 1491 1491 1491 1491 1491
1454 1449 1445 1442 1439 1437 1434 1433 1432 1432 1433 1435 1436 1437 1439 1440 1441 1443 1445 1448 1450 1452 1454 1457 1460 1462 1465 1467 1469 1471 1473 1475 1476 1478 1479 1480 1482 1484 1485 1486 1485 1485 1484
1455 1451 1446 1443 1440 1437 1435 1433 1431 1431 1432 1433 1433 1434 1435 1437 1437 1439 1441 1443 1445 1448 1450 1452 1454 1457 1459 1461 1462 1465 1466 1468 1469 1471 1472 1474 1475 1477 1478 1479 1479 1478 1477
1457 1452 1448 1445 1442 1439 1436 1434 1432 1432 1432 1432 1432 1432 1432 1433 1434 1436 1438 1440 1441 1443 1445 1447 1449 1451 1453 1455 1457 1458 1460 1462 1463 1464 1466 1467 1468 1470 1471 1472 1473 1473 1470
1458 1454 1449 1446 1442 1439 1437 1435 1433 1432 1432 1431 1431 1431 1431 1430 1431 1433 1434 1436 1437 1439 1440 1442 1444 1446 1448 1449 1451 1453 1454 1456 1457 1458 1459 1460 1461 1463 1464 1465 1465 1465 1465
1460 1455 1451 1447 1444 1441 1438 1436 1434 1433 1432 1431 1430 1429 1429 1429 1429 1430 1432 1433 1434 1435 1436 1438 1439 1441 1443 1444 1446 1447 1448 1450 1451 1452 1452 1453 1454 1455 1456 1457 1458 1458 1458
1461 1457 1453 1450 1446 1443 1440 1438 1435 1434 1432 1431 1430 1429 1429 1428 1427 1428 1429 1429 1430 1431 1432 1433 1435 1436 1438 1439 1440 1441 1443 1444 1444 1445 1446 1447 1448 1448 1449 1449 1450 1450 1450
1463 1459 1456 1452 1449 1446 1443 1440 1437 1435 1434 1433 1431 1430 1428 1427 1426 1427 1427 1427 1427 1427 1428 1429 1430 1431 1432 1434 1435 1435 1436 1437 1439 1439 1440 1440 1441 1441 1442 1442 1443 1442 1442
1464 1461 1458 1455 1452 1449 1445 1442 1440 1438 1436 1434 1432 1430 1428 1427 1427 1426 1425 1425 1425 1424 1424 1425 1426 1427 1428 1429 1429 1430 1431 1432 1433 1433 1433 1434 1434 1434 1435 1435 1435 1435 1435
1465 1462 1460 1457 1454 1450 1447 1444 1442 1440 1437 1435 1433 1431 1429 1428 1426 1425 1424 1423 1423 1422 1421 1421 1422 1423 1423 1424 1424 1424 1425 1426 1427 1427 1427 1427 1427 1427 1428 1428 1428 1428 1428
1466 1464 1461 1458 1455 1452 1449 1446 1443 1441 1439 1437 1435 1433 1431 1429 1426 1425 1424 1422 1421 1420 1419 1419 1419 1419 1419 1419 1419 1420 1421 1421 1421 1421 1421 1420 1420 1420 1421 1421 1421 1421 1421
1466 1464 1462 1459 1456 1453 1450 1447 1445 1443 1440 1438 1436 1434 1432 1429 1428 1426 1424 1422 1420 1419 1418 1418 1417 1416 1416 1416 1416 1416 1416 1416 1416 1415 1415 1414 1414 1414 1414 1414 1414 1414 1413
1466 1464 1462 1459 1457 1454 1451 1449 1446 1444 1442 1439 1437 1435 1432 1430 1428 1426 1424 1422 1420 1418 1417 1416 1415 1414 1414 1413 1413 1412 1412 1412 1411 1410 1409 1408 1408 1408 1407 1407 1407 1406 1406
1465 1463 1461 1459 1456 1454 1452 1449 1447 1445 1443 1440 1438 1435 1433 1430 1428 1426 1423 1421 1419 1417 1416 1414 1413 1412 1411 1410 1409 1409 1408 1407 1406 1406 1404 1403 1402 1401 1401 1401 1400 1399 1398
1463 1461 1460 1458 1456 1454 1452 1449 1447 1445 1442 1440 1438 1435 1433 1431 1428 1425 1423 1420 1418 1416 1414 1412 1411 1409 1408 1407 1406 1405 1404 1403 1402 1401 1400 1398 1397 1396 1395 1395 1394 1392 1391
1461 1459 1458 1456 1455 1453 1451 1448 1446 1444 1442 1440 1438 1435 1433 1430 1428 1425 1422 1419 1417 1414 1412 1410 1408 1407 1405 1403 1402 1401 1400 1399 1398 1396 1395 1394 1393 1392 1391 1390 1389 1387 1386
1458 1457 1456 1455 1453 1451 1449 1447 1445 1443 1441 1439 1436 1434 1432 1429 1426 1423 1421 1418 1415 1413 1410 1408 1406 1404 1402 1400 1398 1397 1396 1395 1394 1393 1391 1390 1389 1387 1386 1385 1384 1383 1382
1456 1455 1454 1452 1451 1449 1447 1445 1444 1441 1439 1437 1435 1433 1430 1428 1425 1422 1419 1417 1414 1411 1409 1406 1404 1401 1399 1397 1395 1394 1393 1392 1391 1389 1388 1386 1385 1383 1382 1381 1380 1379 1377
1453 1452 1451 1449 1448 1447 1445 1443 1441 1440 1438 1435 1433 1431 1428 1426 1423 1421 1418 1415 1412 1410 1408 1405 1402 1399 1396 1394 1392 1390 1389 1388 1387 1385 1384 1383 1381 1380 1379 1377 1376 1375 1374
1450 1449 1448 1447 1445 1444 1442 1441 1439 1437 1435 1433 1431 1428 1426 1424 1421 1419 1417 1414 1411 1409 1407 1404 1401 1398 1394 1393 1391 1389 1387 1385 1383 1382 1380 1378 1377 1376 1375 1373 1372 1371 1370
1447 1446 1445 1444 1442 1441 1439 1438 1436 1434 1433 1431 1429 1426 1424 1422 1419 1417 1414 1412 1410 1407 1404 1402 1400 1396 1394 1391 1389 1387 1385 1383 1381 1379 1377 1375 1374 1373 1371 1370 1369 1368 1367